| time (UTC) | temp F | wind direction | speed MPH | gust MPH | rain 1hr in | rain 24hr in | rain mn in | humidity % | barometer mb |
| 20260502163040 | 41 | 104 | 1.0 | 4.0 | 0.00 | 0.00 | 0.00 | 79 | 1005.6 |
| 20260502162530 | 40 | 110 | 2.0 | 4.0 | 0.00 | 0.00 | 0.00 | 79 | 1005.6 |
| 20260502162034 | 40 | 137 | 1.0 | 4.0 | 0.00 | 0.00 | 0.00 | 81 | 1005.5 |
| 20260502161529 | 40 | 147 | 0.0 | 3.0 | 0.00 | 0.00 | 0.00 | 82 | 1005.5 |
| 20260502161028 | 39 | 134 | 1.0 | 3.0 | 0.00 | 0.00 | 0.00 | 83 | 1005.4 |
| 20260502160527 | 39 | 111 | 0.0 | 3.0 | 0.00 | 0.00 | 0.00 | 83 | 1005.4 |
| 20260502152018 | 38 | 229 | 0.0 | 0.0 | 0.00 | 0.00 | 0.00 | 85 | 1004.7 |
| 20260502151518 | 38 | 229 | 0.0 | 0.0 | 0.00 | 0.00 | 0.00 | 85 | 1004.7 |
| 20260502151016 | 38 | 229 | 0.0 | 0.0 | 0.00 | 0.00 | 0.00 | 85 | 1004.4 |
| 20260502150516 | 37 | 229 | 0.0 | 0.0 | 0.00 | 0.00 | 0.00 | 84 | 1004.4 |
| 20260502130556 | 39 | 234 | 0.0 | 1.0 | 0.00 | 0.00 | 0.00 | 79 | 1002.6 |
| 20260502123552 | 39 | 250 | 1.0 | 4.0 | 0.00 | 0.00 | 0.00 | 77 | 1002.1 |
| 20260502123048 | 39 | 213 | 0.0 | 4.0 | 0.00 | 0.00 | 0.00 | 77 | 1001.9 |
| 20260502122551 | 40 | 238 | 1.0 | 6.0 | 0.00 | 0.00 | 0.00 | 77 | 1001.8 |
| 20260502122049 | 40 | 240 | 1.0 | 6.0 | 0.00 | 0.00 | 0.00 | 76 | 1001.7 |
| 20260502121546 | 40 | 230 | 2.0 | 6.0 | 0.00 | 0.00 | 0.00 | 76 | 1001.6 |
| 20260502121046 | 40 | 225 | 2.0 | 6.0 | 0.00 | 0.00 | 0.00 | 76 | 1001.3 |
| 20260502120545 | 40 | 238 | 1.0 | 7.0 | 0.00 | 0.00 | 0.00 | 76 | 1001.4 |
| 20260502115548 | 40 | 211 | 2.0 | 5.0 | 0.00 | 0.00 | 0.00 | 76 | 1001.1 |
| 20260502115042 | 40 | 243 | 2.0 | 7.0 | 0.00 | 0.00 | 0.00 | 76 | 1001.0 |
| 20260502114643 | 40 | 211 | 2.0 | 7.0 | 0.00 | 0.00 | 0.00 | 76 | 1000.9 |
| 20260502114040 | 40 | 235 | 2.0 | 7.0 | 0.00 | 0.00 | 0.00 | 77 | 1000.8 |
| 20260502113539 | 39 | 196 | 2.0 | 8.0 | 0.00 | 0.00 | 0.00 | 77 | 1000.6 |
| 20260502113041 | 39 | 217 | 2.0 | 9.0 | 0.00 | 0.00 | 0.00 | 78 | 1000.4 |
| 20260502112535 | 38 | 261 | 3.0 | 9.0 | 0.00 | 0.00 | 0.00 | 79 | 1000.2 |
| 20260502112036 | 37 | 215 | 3.0 | 6.0 | 0.00 | 0.00 | 0.00 | 81 | 1000.0 |
| 20260502111535 | 37 | 222 | 2.0 | 6.0 | 0.00 | 0.00 | 0.00 | 82 | 999.9 |
| 20260502111032 | 36 | 249 | 1.0 | 6.0 | 0.00 | 0.00 | 0.00 | 84 | 999.7 |
| 20260502110531 | 36 | 211 | 2.0 | 4.0 | 0.00 | 0.00 | 0.00 | 85 | 999.6 |
| 20260502110036 | 36 | 233 | 1.0 | 4.0 | 0.00 | 0.00 | 0.00 | 86 | 999.5 |
| 20260502105530 | 36 | 244 | 1.0 | 3.0 | 0.00 | 0.00 | 0.00 | 86 | 999.4 |
| 20260502105028 | 36 | 292 | 1.0 | 2.0 | 0.00 | 0.00 | 0.00 | 86 | 999.3 |
| 20260502104526 | 36 | 304 | 1.0 | 2.0 | 0.00 | 0.00 | 0.00 | 86 | 999.2 |
| 20260502104025 | 36 | 280 | 1.0 | 2.0 | 0.00 | 0.00 | 0.00 | 86 | 999.1 |
| 20260502103525 | 36 | 191 | 0.0 | 2.0 | 0.00 | 0.00 | 0.00 | 86 | 999.0 |
| 20260502103031 | 36 | 315 | 0.0 | 3.0 | 0.00 | 0.00 | 0.00 | 86 | 998.8 |
| 20260502102524 | 36 | 315 | 1.0 | 3.0 | 0.00 | 0.00 | 0.00 | 85 | 998.7 |
| 20260502102023 | 36 | 149 | 0.0 | 0.0 | 0.00 | 0.00 | 0.00 | 86 | 998.6 |
| 20260502101540 | 36 | 148 | 0.0 | 2.0 | 0.00 | 0.00 | 0.00 | 85 | 998.6 |
| 20260502101020 | 36 | 148 | 0.0 | 2.0 | 0.00 | 0.00 | 0.00 | 85 | 998.5 |
| 20260502100519 | 37 | 148 | 1.0 | 2.0 | 0.00 | 0.00 | 0.00 | 85 | 998.4 |
| 20260502091507 | 37 | 312 | 0.0 | 0.0 | 0.00 | 0.00 | 0.00 | 86 | 997.4 |
| 20260502091006 | 37 | 312 | 0.0 | 0.0 | 0.00 | 0.00 | 0.00 | 86 | 997.2 |
| 20260502090505 | 37 | 312 | 0.0 | 0.0 | 0.00 | 0.00 | 0.00 | 86 | 997.0 |
| 20260502080108 | 38 | 312 | 0.0 | 0.0 | 0.00 | 0.00 | 0.00 | 85 | 996.2 |
| 20260502071054 | 39 | 312 | 0.0 | 0.0 | 0.00 | 0.00 | 0.00 | 84 | 995.5 |
| 20260502070554 | 39 | 312 | 0.0 | 0.0 | 0.00 | 0.00 | 0.00 | 84 | 995.5 |
| 20260502070109 | 40 | 312 | 0.0 | 0.0 | 0.00 | 0.00 | 0.00 | 83 | 995.6 |
| 20260502065554 | 40 | 312 | 0.0 | 0.0 | 0.00 | 0.00 | 0.00 | 83 | 995.6 |
| 20260502065053 | 40 | 312 | 0.0 | 0.0 | 0.00 | 0.00 | 0.00 | 83 | 995.6 |
| 20260502064556 | 40 | 312 | 0.0 | 0.0 | 0.00 | 0.00 | 0.00 | 83 | 995.5 |
| 20260502064053 | 40 | 312 | 0.0 | 0.0 | 0.00 | 0.00 | 0.00 | 83 | 995.5 |
| 20260502063553 | 41 | 312 | 0.0 | 0.0 | 0.00 | 0.00 | 0.00 | 82 | 995.4 |
| 20260502063058 | 41 | 312 | 0.0 | 0.0 | 0.00 | 0.00 | 0.00 | 82 | 995.5 |
| 20260502062553 | 41 | 312 | 0.0 | 0.0 | 0.00 | 0.00 | 0.00 | 82 | 995.4 |
| 20260502062055 | 41 | 312 | 0.0 | 0.0 | 0.00 | 0.00 | 0.00 | 82 | 995.2 |
| 20260502061557 | 41 | 312 | 0.0 | 0.0 | 0.00 | 0.00 | 0.00 | 81 | 995.3 |
| 20260502061052 | 41 | 312 | 0.0 | 0.0 | 0.00 | 0.00 | 0.00 | 82 | 995.3 |
| 20260502060552 | 41 | 312 | 0.0 | 0.0 | 0.00 | 0.00 | 0.00 | 81 | 995.3 |
| 20260502060052 | 41 | 312 | 0.0 | 0.0 | 0.00 | 0.00 | 0.00 | 81 | 995.4 |
| 20260502055552 | 42 | 312 | 0.0 | 0.0 | 0.00 | 0.00 | 0.00 | 82 | 995.4 |
| 20260502055052 | 42 | 312 | 0.0 | 0.0 | 0.00 | 0.00 | 0.00 | 82 | 995.4 |
| 20260502054556 | 42 | 311 | 0.0 | 0.0 | 0.00 | 0.00 | 0.00 | 81 | 995.4 |
| 20260502054050 | 42 | 311 | 0.0 | 0.0 | 0.00 | 0.00 | 0.00 | 81 | 995.3 |
| 20260502053550 | 42 | 311 | 0.0 | 0.0 | 0.00 | 0.00 | 0.00 | 80 | 995.3 |
| 20260502053051 | 42 | 311 | 0.0 | 0.0 | 0.00 | 0.00 | 0.00 | 80 | 995.2 |
| 20260502052551 | 43 | 311 | 0.0 | 0.0 | 0.00 | 0.00 | 0.00 | 80 | 995.4 |
| 20260502052053 | 43 | 311 | 0.0 | 0.0 | 0.00 | 0.00 | 0.00 | 80 | 995.3 |
| 20260502051610 | 43 | 311 | 0.0 | 0.0 | 0.00 | 0.00 | 0.00 | 79 | 995.3 |
| 20260502051050 | 43 | 311 | 0.0 | 2.0 | 0.00 | 0.00 | 0.00 | 78 | 995.2 |
| 20260502050550 | 43 | 311 | 0.0 | 2.0 | 0.00 | 0.00 | 0.00 | 76 | 995.3 |
| 20260502050054 | 43 | 311 | 1.0 | 2.0 | 0.00 | 0.00 | 0.00 | 74 | 995.3 |
| 20260502045549 | 44 | 311 | 0.0 | 2.0 | 0.00 | 0.00 | 0.00 | 77 | 995.4 |
| 20260502045047 | 44 | 311 | 0.0 | 2.0 | 0.00 | 0.00 | 0.00 | 77 | 995.5 |
| 20260502044548 | 44 | 311 | 1.0 | 2.0 | 0.00 | 0.00 | 0.00 | 76 | 995.5 |
| 20260502044047 | 44 | 311 | 0.0 | 1.0 | 0.00 | 0.00 | 0.00 | 73 | 995.6 |
| 20260502043547 | 44 | 309 | 0.0 | 0.0 | 0.00 | 0.00 | 0.00 | 75 | 995.6 |
| 20260502043051 | 44 | 302 | 0.0 | 0.0 | 0.00 | 0.00 | 0.00 | 75 | 995.6 |
| 20260502042547 | 44 | 302 | 0.0 | 0.0 | 0.00 | 0.00 | 0.00 | 74 | 995.7 |
| 20260502042047 | 45 | 302 | 0.0 | 0.0 | 0.00 | 0.00 | 0.00 | 73 | 995.6 |
| 20260502041547 | 45 | 302 | 0.0 | 1.0 | 0.00 | 0.00 | 0.00 | 72 | 995.6 |
| 20260502041047 | 45 | 302 | 0.0 | 1.0 | 0.00 | 0.00 | 0.00 | 70 | 995.7 |
| 20260502040545 | 46 | 302 | 0.0 | 3.0 | 0.00 | 0.00 | 0.00 | 69 | 995.8 |
| 20260502040054 | 46 | 302 | 1.0 | 4.0 | 0.00 | 0.00 | 0.00 | 66 | 995.7 |
| 20260502035544 | 47 | 305 | 1.0 | 4.0 | 0.00 | 0.00 | 0.00 | 63 | 995.8 |
| 20260502035044 | 47 | 5 | 0.0 | 0.0 | 0.00 | 0.00 | 0.00 | 63 | 995.7 |
| 20260502034543 | 47 | 5 | 0.0 | 2.0 | 0.00 | 0.00 | 0.00 | 62 | 995.9 |
| 20260502034046 | 47 | 5 | 0.0 | 3.0 | 0.00 | 0.00 | 0.00 | 60 | 996.1 |
| 20260502033542 | 47 | 5 | 1.0 | 3.0 | 0.00 | 0.00 | 0.00 | 58 | 995.9 |
| 20260502033043 | 48 | 61 | 1.0 | 5.0 | 0.00 | 0.00 | 0.00 | 58 | 995.9 |
| 20260502032541 | 48 | 63 | 0.0 | 5.0 | 0.00 | 0.00 | 0.00 | 57 | 995.9 |
| 20260502032043 | 48 | 105 | 2.0 | 4.0 | 0.00 | 0.00 | 0.00 | 56 | 996.0 |
| 20260502031541 | 48 | 36 | 2.0 | 6.0 | 0.00 | 0.00 | 0.00 | 56 | 996.1 |
| 20260502031041 | 48 | 78 | 1.0 | 6.0 | 0.00 | 0.00 | 0.00 | 55 | 996.2 |
| 20260502030539 | 49 | 63 | 1.0 | 6.0 | 0.00 | 0.00 | 0.00 | 54 | 996.2 |
| 20260502030040 | 49 | 62 | 2.0 | 6.0 | 0.00 | 0.00 | 0.00 | 54 | 996.4 |
| 20260502025539 | 49 | 94 | 2.0 | 6.0 | 0.00 | 0.00 | 0.00 | 53 | 996.6 |
| 20260502025041 | 49 | 40 | 2.0 | 8.0 | 0.00 | 0.00 | 0.00 | 52 | 996.5 |
| 20260502024541 | 49 | 80 | 2.0 | 8.0 | 0.00 | 0.00 | 0.00 | 52 | 996.6 |
| 20260502024041 | 49 | 92 | 2.0 | 7.0 | 0.00 | 0.00 | 0.00 | 52 | 996.5 |
| 20260502023542 | 50 | 110 | 1.0 | 10.0 | 0.00 | 0.00 | 0.00 | 51 | 996.3 |
| 20260502023047 | 50 | 51 | 3.0 | 10.0 | 0.00 | 0.00 | 0.00 | 50 | 996.4 |
| 20260502022538 | 50 | 58 | 2.0 | 10.0 | 0.00 | 0.00 | 0.00 | 50 | 996.5 |
| 20260502022041 | 50 | 38 | 4.0 | 10.0 | 0.00 | 0.00 | 0.00 | 51 | 996.4 |
| 20260502021537 | 50 | 75 | 3.0 | 10.0 | 0.00 | 0.00 | 0.00 | 49 | 996.4 |
| 20260502021039 | 50 | 112 | 2.0 | 6.0 | 0.00 | 0.00 | 0.00 | 49 | 996.4 |
| 20260502020537 | 50 | 76 | 2.0 | 9.0 | 0.00 | 0.00 | 0.00 | 47 | 996.4 |
| 20260502020048 | 50 | 38 | 4.0 | 9.0 | 0.00 | 0.00 | 0.00 | 47 | 996.5 |
| 20260502015537 | 50 | 82 | 2.0 | 10.0 | 0.00 | 0.00 | 0.00 | 46 | 996.5 |
| 20260502015036 | 50 | 57 | 3.0 | 7.0 | 0.00 | 0.00 | 0.00 | 46 | 996.6 |
| 20260502014535 | 50 | 69 | 1.0 | 4.0 | 0.00 | 0.00 | 0.00 | 46 | 996.5 |
| 20260502014035 | 50 | 119 | 1.0 | 6.0 | 0.00 | 0.00 | 0.00 | 46 | 996.5 |
| 20260502013537 | 50 | 103 | 3.0 | 7.0 | 0.00 | 0.00 | 0.00 | 46 | 996.6 |
| 20260502013052 | 50 | 49 | 1.0 | 4.0 | 0.00 | 0.00 | 0.00 | 48 | 996.4 |
| 20260502012534 | 50 | 42 | 1.0 | 8.0 | 0.00 | 0.00 | 0.00 | 47 | 996.4 |
| 20260502012034 | 50 | 98 | 2.0 | 10.0 | 0.00 | 0.00 | 0.00 | 45 | 996.6 |
| 20260502011533 | 50 | 67 | 3.0 | 13.0 | 0.00 | 0.00 | 0.00 | 46 | 996.8 |
| 20260502011033 | 50 | 49 | 2.0 | 8.0 | 0.00 | 0.00 | 0.00 | 47 | 997.0 |
| 20260502010532 | 50 | 52 | 2.0 | 4.0 | 0.00 | 0.00 | 0.00 | 46 | 996.9 |
| 20260502010132 | 50 | 80 | 1.0 | 7.0 | 0.00 | 0.00 | 0.00 | 47 | 997.0 |
| 20260502005532 | 50 | 102 | 3.0 | 10.0 | 0.00 | 0.00 | 0.00 | 47 | 996.9 |
| 20260502005031 | 50 | 97 | 3.0 | 10.0 | 0.00 | 0.00 | 0.00 | 45 | 996.7 |
| 20260502004532 | 50 | 56 | 3.0 | 11.0 | 0.00 | 0.00 | 0.00 | 46 | 996.6 |
| 20260502004030 | 50 | 75 | 3.0 | 12.0 | 0.00 | 0.00 | 0.00 | 45 | 996.6 |
| 20260502003529 | 50 | 62 | 4.0 | 12.0 | 0.00 | 0.00 | 0.00 | 44 | 996.8 |
| 20260502003029 | 51 | 111 | 4.0 | 12.0 | 0.00 | 0.00 | 0.00 | 45 | 997.1 |
| 20260502002527 | 51 | 21 | 5.0 | 12.0 | 0.00 | 0.00 | 0.00 | 43 | 997.3 |
| 20260502002027 | 51 | 180 | 3.0 | 10.0 | 0.00 | 0.00 | 0.00 | 44 | 997.4 |
| 20260502001526 | 51 | 24 | 3.0 | 8.0 | 0.00 | 0.00 | 0.00 | 42 | 997.4 |
| 20260502001024 | 51 | 26 | 3.0 | 9.0 | 0.00 | 0.00 | 0.00 | 43 | 997.6 |
| 20260502000524 | 51 | 63 | 4.0 | 9.0 | 0.00 | 0.00 | 0.00 | 43 | 997.6 |
| 20260502000024 | 51 | 103 | 2.0 | 11.0 | 0.00 | 0.00 | 0.00 | 44 | 997.7 |
| 20260501235522 | 51 | 55 | 3.0 | 11.0 | 0.00 | 0.00 | 0.00 | 43 | 997.8 |
| 20260501235022 | 51 | 103 | 2.0 | 8.0 | 0.00 | 0.00 | 0.00 | 42 | 997.9 |
| 20260501234520 | 51 | 105 | 4.0 | 8.0 | 0.00 | 0.00 | 0.00 | 43 | 998.1 |
| 20260501234020 | 51 | 98 | 2.0 | 11.0 | 0.00 | 0.00 | 0.00 | 44 | 998.2 |
| 20260501233519 | 51 | 104 | 3.0 | 8.0 | 0.00 | 0.00 | 0.00 | 44 | 998.3 |
| 20260501233022 | 51 | 121 | 3.0 | 8.0 | 0.00 | 0.00 | 0.00 | 44 | 998.5 |
| 20260501232518 | 51 | 99 | 2.0 | 11.0 | 0.00 | 0.00 | 0.00 | 43 | 998.6 |
| 20260501232019 | 51 | 71 | 4.0 | 12.0 | 0.00 | 0.00 | 0.00 | 44 | 998.5 |
| 20260501231518 | 51 | 99 | 3.0 | 10.0 | 0.00 | 0.00 | 0.00 | 45 | 998.7 |
| 20260501231017 | 51 | 47 | 4.0 | 13.0 | 0.00 | 0.00 | 0.00 | 44 | 998.5 |
| 20260501230517 | 51 | 98 | 6.0 | 12.0 | 0.00 | 0.00 | 0.00 | 45 | 998.7 |
| 20260501230019 | 51 | 90 | 3.0 | 12.0 | 0.00 | 0.00 | 0.00 | 44 | 999.0 |
| 20260501225516 | 51 | 74 | 4.0 | 12.0 | 0.00 | 0.00 | 0.00 | 43 | 999.1 |
| 20260501225014 | 51 | 65 | 5.0 | 12.0 | 0.00 | 0.00 | 0.00 | 43 | 999.1 |
| 20260501224513 | 51 | 67 | 2.0 | 9.0 | 0.00 | 0.00 | 0.00 | 44 | 999.2 |
| 20260501224013 | 51 | 97 | 2.0 | 6.0 | 0.00 | 0.00 | 0.00 | 43 | 999.2 |
| 20260501223512 | 51 | 99 | 1.0 | 8.0 | 0.00 | 0.00 | 0.00 | 45 | 999.3 |
| 20260501223012 | 51 | 97 | 2.0 | 8.0 | 0.00 | 0.00 | 0.00 | 44 | 999.4 |
| 20260501222511 | 51 | 14 | 1.0 | 4.0 | 0.00 | 0.00 | 0.00 | 47 | 999.3 |
| 20260501222010 | 50 | 76 | 0.0 | 11.0 | 0.00 | 0.00 | 0.00 | 46 | 999.5 |
| 20260501221511 | 50 | 89 | 2.0 | 11.0 | 0.00 | 0.00 | 0.00 | 45 | 999.5 |
| 20260501221007 | 50 | 30 | 3.0 | 10.0 | 0.00 | 0.00 | 0.00 | 45 | 999.5 |
| 20260501220506 | 49 | 51 | 3.0 | 8.0 | 0.00 | 0.00 | 0.00 | 46 | 999.6 |
| 20260501220005 | 49 | 5 | 2.0 | 10.0 | 0.00 | 0.00 | 0.00 | 47 | 999.8 |
| 20260501215503 | 49 | 109 | 4.0 | 10.0 | 0.00 | 0.00 | 0.00 | 47 | 999.7 |
| 20260501215001 | 48 | 31 | 2.0 | 6.0 | 0.00 | 0.00 | 0.00 | 48 | 999.6 |
| 20260501214601 | 48 | 55 | 2.0 | 4.0 | 0.00 | 0.00 | 0.00 | 48 | 999.9 |
| 20260501214059 | 48 | 113 | 1.0 | 5.0 | 0.00 | 0.00 | 0.00 | 48 | 1000.2 |
| 20260501213601 | 48 | 50 | 2.0 | 8.0 | 0.00 | 0.00 | 0.00 | 47 | 1000.3 |
| 20260501213104 | 48 | 50 | 3.0 | 8.0 | 0.00 | 0.00 | 0.00 | 49 | 1000.4 |
| 20260501212558 | 48 | 76 | 2.0 | 6.0 | 0.00 | 0.00 | 0.00 | 49 | 1000.5 |
| 20260501212102 | 48 | 79 | 1.0 | 7.0 | 0.00 | 0.00 | 0.00 | 48 | 1000.6 |
| 20260501211600 | 48 | 80 | 2.0 | 4.0 | 0.00 | 0.00 | 0.00 | 47 | 1000.5 |
| 20260501211056 | 48 | 80 | 1.0 | 5.0 | 0.00 | 0.00 | 0.00 | 47 | 1000.6 |
| 20260501210557 | 48 | 37 | 2.0 | 7.0 | 0.00 | 0.00 | 0.00 | 47 | 1000.5 |
| 20260501210117 | 48 | 79 | 2.0 | 7.0 | 0.00 | 0.00 | 0.00 | 46 | 1000.6 |
| 20260501205556 | 48 | 64 | 1.0 | 8.0 | 0.00 | 0.00 | 0.00 | 46 | 1000.7 |
| 20260501205056 | 48 | 5 | 2.0 | 8.0 | 0.00 | 0.00 | 0.00 | 46 | 1000.7 |
| 20260501204559 | 49 | 25 | 1.0 | 8.0 | 0.00 | 0.00 | 0.00 | 45 | 1000.6 |
| 20260501204055 | 49 | 87 | 3.0 | 8.0 | 0.00 | 0.00 | 0.00 | 45 | 1000.6 |
| 20260501203555 | 49 | 117 | 2.0 | 8.0 | 0.00 | 0.00 | 0.00 | 45 | 1000.6 |
| 20260501203101 | 48 | 59 | 3.0 | 10.0 | 0.00 | 0.00 | 0.00 | 44 | 1000.7 |
| 20260501202554 | 48 | 88 | 5.0 | 10.0 | 0.00 | 0.00 | 0.00 | 43 | 1000.9 |
| 20260501202054 | 48 | 61 | 3.0 | 10.0 | 0.00 | 0.00 | 0.00 | 44 | 1000.6 |
| 20260501201559 | 48 | 37 | 4.0 | 10.0 | 0.00 | 0.00 | 0.00 | 44 | 1000.6 |
| 20260501201053 | 48 | 65 | 2.0 | 12.0 | 0.00 | 0.00 | 0.00 | 45 | 1000.7 |
| 20260501200552 | 48 | 71 | 4.0 | 15.0 | 0.00 | 0.00 | 0.00 | 44 | 1000.9 |
| 20260501200052 | 48 | 84 | 8.0 | 15.0 | 0.00 | 0.00 | 0.00 | 44 | 1001.1 |
| 20260501195551 | 48 | 84 | 3.0 | 17.0 | 0.00 | 0.00 | 0.00 | 43 | 1001.3 |
| 20260501195052 | 48 | 80 | 6.0 | 17.0 | 0.00 | 0.00 | 0.00 | 43 | 1001.4 |
| 20260501194551 | 48 | 63 | 2.0 | 14.0 | 0.00 | 0.00 | 0.00 | 44 | 1001.3 |
| 20260501194050 | 48 | 71 | 3.0 | 14.0 | 0.00 | 0.00 | 0.00 | 45 | 1001.4 |
| 20260501193547 | 48 | 77 | 4.0 | 12.0 | 0.00 | 0.00 | 0.00 | 44 | 1001.7 |
| 20260501193049 | 48 | 40 | 3.0 | 12.0 | 0.00 | 0.00 | 0.00 | 45 | 1001.9 |
| 20260501192544 | 47 | 27 | 2.0 | 12.0 | 0.00 | 0.00 | 0.00 | 48 | 1002.0 |
| 20260501192044 | 47 | 95 | 4.0 | 9.0 | 0.00 | 0.00 | 0.00 | 46 | 1002.2 |
| 20260501191544 | 47 | 159 | 2.0 | 8.0 | 0.00 | 0.00 | 0.00 | 49 | 1002.1 |
| 20260501191042 | 47 | 90 | 3.0 | 8.0 | 0.00 | 0.00 | 0.00 | 48 | 1002.2 |
| 20260501190541 | 47 | 40 | 1.0 | 6.0 | 0.00 | 0.00 | 0.00 | 49 | 1002.4 |
| 20260501190041 | 46 | 34 | 1.0 | 5.0 | 0.00 | 0.00 | 0.00 | 51 | 1002.3 |
| 20260501185539 | 46 | 71 | 1.0 | 12.0 | 0.00 | 0.00 | 0.00 | 53 | 1002.3 |
| 20260501185037 | 45 | 34 | 6.0 | 12.0 | 0.00 | 0.00 | 0.00 | 51 | 1002.4 |
| 20260501184535 | 45 | 96 | 2.0 | 7.0 | 0.00 | 0.00 | 0.00 | 54 | 1002.4 |
| 20260501184034 | 44 | 98 | 1.0 | 5.0 | 0.00 | 0.00 | 0.00 | 56 | 1002.5 |
| 20260501183531 | 44 | 15 | 2.0 | 5.0 | 0.00 | 0.00 | 0.00 | 58 | 1002.6 |
| 20260501183035 | 43 | 30 | 1.0 | 5.0 | 0.00 | 0.00 | 0.00 | 59 | 1002.7 |
| 20260501182528 | 43 | 46 | 1.0 | 5.0 | 0.00 | 0.00 | 0.00 | 57 | 1002.7 |
| 20260501182032 | 43 | 43 | 0.0 | 2.0 | 0.00 | 0.00 | 0.00 | 60 | 1002.7 |
| 20260501181549 | 43 | 43 | 1.0 | 2.0 | 0.00 | 0.00 | 0.00 | 61 | 1002.7 |
| 20260501181026 | 43 | 43 | 1.0 | 3.0 | 0.00 | 0.00 | 0.00 | 60 | 1002.9 |
| 20260501180526 | 43 | 73 | 1.0 | 3.0 | 0.00 | 0.00 | 0.00 | 61 | 1002.9 |
| 20260501180025 | 43 | 88 | 1.0 | 3.0 | 0.00 | 0.00 | 0.00 | 60 | 1002.9 |
| 20260501175524 | 42 | 50 | 0.0 | 3.0 | 0.00 | 0.00 | 0.00 | 61 | 1003.0 |
| 20260501175027 | 42 | 50 | 1.0 | 3.0 | 0.00 | 0.00 | 0.00 | 62 | 1003.1 |
| 20260501174522 | 42 | 50 | 1.0 | 4.0 | 0.00 | 0.00 | 0.00 | 62 | 1003.2 |
| 20260501174021 | 42 | 50 | 1.0 | 4.0 | 0.00 | 0.00 | 0.00 | 63 | 1003.4 |
| 20260501173520 | 42 | 67 | 1.0 | 3.0 | 0.00 | 0.00 | 0.00 | 63 | 1003.6 |
| 20260501173018 | 41 | 95 | 1.0 | 2.0 | 0.00 | 0.00 | 0.00 | 63 | 1003.8 |
| 20260501172518 | 41 | 96 | 0.0 | 3.0 | 0.00 | 0.00 | 0.00 | 65 | 1003.9 |
| 20260501172017 | 41 | 96 | 1.0 | 3.0 | 0.00 | 0.00 | 0.00 | 64 | 1004.0 |
| 20260501171517 | 40 | 48 | 0.0 | 4.0 | 0.00 | 0.00 | 0.00 | 65 | 1003.9 |
| 20260501171013 | 40 | 49 | 1.0 | 4.0 | 0.00 | 0.00 | 0.00 | 65 | 1004.0 |
| 20260501170511 | 40 | 360 | 1.0 | 3.0 | 0.00 | 0.00 | 0.00 | 67 | 1004.1 |
| 20260501170012 | 39 | 56 | 0.0 | 2.0 | 0.00 | 0.00 | 0.00 | 67 | 1004.1 |
| 20260501165513 | 39 | 80 | 0.0 | 0.0 | 0.00 | 0.00 | 0.00 | 69 | 1004.1 |
| 20260501165009 | 39 | 80 | 0.0 | 0.0 | 0.00 | 0.00 | 0.00 | 69 | 1004.1 |
| 20260501164514 | 38 | 80 | 0.0 | 0.0 | 0.00 | 0.00 | 0.00 | 70 | 1004.1 |
| 20260501164004 | 38 | 80 | 0.0 | 0.0 | 0.00 | 0.00 | 0.00 | 71 | 1004.2 |
| 20260501163503 | 38 | 80 | 0.0 | 0.0 | 0.00 | 0.00 | 0.00 | 72 | 1004.3 |